Regional Weather Roundup
Issued by NWS Columbia, SC

Home | Current Version | Previous Version | Text Only | Print | Product List | Glossary On
Versions: 1 2 3 4 5 6 7 8 9 10 11 12 13 14 15 16 17 18 19 20 21 22 23 24 25 26 27 28 29 30 31 32 33 34 35 36 37 38 39 40 41 42 43 44 45 46 47 48 49 50
360
ASUS42 KCAE 251710
RWRCAE
REGIONAL WEATHER ROUNDUP
NATIONAL WEATHER SERVICE COLUMBIA SC
1200 PM EST SUN FEB 25 2018

NOTE: "FAIR" INDICATES FEW OR NO CLOUDS BELOW 12,000 FEET WITH NO
SIGNIFICANT WEATHER AND/OR OBSTRUCTIONS TO VISIBILITY.

NOT ALL STATIONS ARE QUALITY CONTROLLED BY THE NATIONAL
WEATHER SERVICE. USE DATA WITH CAUTION...ESPECIALLY
DEWPOINT OBSERVATIONS.

SCZ001>056-GAZ040-063>065-077-251800-
...UPSTATE SOUTH CAROLINA...

CITY           SKY/WX    TMP DP  RH WIND       PRES   REMARKS
ANDERSON       CLOUDY    66  61  84 SW8       30.12S
LIBERTY        CLOUDY    65  65 100 SW5       30.10F
SPARTANBURG    LGT RAIN  63  57  82 CALM      30.10F
CLEMSON        CLOUDY    65  60  84 SW3       30.11F
GREENVILLE     CLOUDY    66  62  87 SW8       30.11F
GREENWOOD      LGT RAIN  64  63  96 VRB5      30.14R
GREER          CLOUDY    68  60  75 W8        30.11S
ROCK HILL      LGT RAIN  65  62  90 NW7       30.12R FOG
CHESTER        DRIZZLE   70  57  64 W7        30.12R
LAURENS        RAIN      63  59  88 NW13G20   30.14R


...CENTRAL SOUTH CAROLINA...

CITY           SKY/WX    TMP DP  RH WIND       PRES   REMARKS
COLUMBIA APT   PTSUNNY   74  63  68 SW13G20   30.12S
COLUMBIA OWENS PTSUNNY   73  60  63 W16G22    30.13S
MCENTIRE ANGB  PTSUNNY   78  59  52 SW15G25   30.12S
ORANGEBURG     FAIR      77  62  59 W16G23    30.12F
SUMTER SHAW    FAIR      78  60  53 SW15      30.08F
NEWBERRY       DRIZZLE   66  64  94 SW9       30.16R
AIKEN          CLOUDY    70  61  73 SW9       30.17S
BARNWELL         N/A     73  64  73 SW14G21   30.15S
MANNING        FAIR      79  52  38 MISG      30.11F
CAMDEN         PTSUNNY   77  61  57 SW17G24   30.11S
LANCASTER      PTSUNNY   72  61  68 SW13      30.11R
WINNSBORO      CLOUDY    72  61  68 SW13G20   30.11S


...EASTERN AND COASTAL SOUTH CAROLINA...

CITY           SKY/WX    TMP DP  RH WIND       PRES   REMARKS
MYRTLE BEACH   FAIR      75  65  70 S14       30.12F
N MYRTLE BCH   FAIR      72  64  76 SW15      30.11F
CONWAY         FAIR      81  63  54 SW15      30.10F HAZE
MARION         FAIR      77  61  57 SW14G23   30.09F
HARTSVILLE     PTSUNNY   75  59  57 SW14G20   30.09F
FLORENCE       PTSUNNY   80  61  52 W15G23    30.09F
DARLINGTON     FAIR      78  61  55 SW16      30.09S
CHARLESTON APT FAIR      83  63  50 SW13G22   30.12F
MOUNT PLEASANT FAIR      81  64  57 S15       30.13F
WALTERBORO     PTSUNNY   79  63  57 W15       30.13F
BEAUFORT       CLOUDY    82  64  54 W18G28    30.13


...EASTERN GEORGIA...

CITY           SKY/WX    TMP DP  RH WIND       PRES   REMARKS
AUGUSTA BUSH F CLOUDY    77  63  61 SW14      30.13S
AUGUSTA DANIEL CLOUDY    74  62  66 SW8G16    30.14S
THOMSON        CLOUDY    71  62  72 N15       30.21R
WASHINGTON     LGT RAIN  63  61  94 W6        30.16S
CLAXTON        PTSUNNY   78  67  69 S7G17     30.16F
SYLVANIA       CLOUDY    73  67  82 W8        30.17F
STATESBORO     CLOUDY    74  62  66 SW9       30.16F
SAVANNAH       FAIR      83  63  50 W14G25    30.15F


...SOUTHERN NORTH CAROLINA...

CITY           SKY/WX    TMP DP  RH WIND       PRES   REMARKS
CHARLOTTE      LGT RAIN  65  64  97 W8        30.11S
MONROE         CLOUDY    70  60  70 W7        30.10R
WADESBORO      CLOUDY    76  57  52 SW9       30.08S
ROCKINGHAM     FAIR      78  61  55 SW14G20   30.08F
RUTHERFORDTON  CLOUDY    64  64  99 CALM      30.11R
ASHEVILLE      CLOUDY    62  48  60 N6        30.11F

$$




USA.gov is the U.S. government's official web portal to all federal, state and local government web resources and services.